Regional Weather Roundup
Issued by NWS

Home | Current Version | Previous Version | Text Only | Print | Product List | Glossary On
Versions: 1 2 3 4 5 6 7 8 9 10 11 12 13 14 15 16 17 18 19 20 21 22 23 24 25 26 27 28 29 30 31 32 33 34 35 36 37 38 39 40 41 42 43 44 45 46 47 48 49 50
000
ASHW40 PHFO 260843
RWRHI

WEATHER ROUNDUP FOR HAWAII
NATIONAL WEATHER SERVICE HONOLULU HI
1000 PM HST WED MAY 25 2016

THIS IS AN AUTOMATED REPORT THAT HAS NOT BEEN QUALITY CONTROLLED.

NOTE..."FAIR" INDICATES FEW OR NO CLOUDS BELOW 12,000 FEET WITH NO
SIGNIFICANT WEATHER AND/OR OBSTRUCTIONS TO VISIBILITY.

* - THESE SITES REPORT LIMITED FIELDS

HIZ001>004-260900-
KAUAI-NIIHAU-

CITY           SKY/WX    TMP DP  RH WIND       PRES   REMARKS
LIHUE APT      PTCLDY    75  68  78 NE9       30.11S
PORT ALLEN*      N/A     75 N/A N/A E8          N/A
POIPU*           N/A     75 N/A N/A NE5G12      N/A
PRINCEVILLE*     N/A     72 N/A N/A SE3         N/A
KOKOLE POINT*    N/A     73 N/A N/A MISG        N/A
MOLOAA DAIRY*    N/A     73  70  88 SE3         N/A
WAIMEA HTS*      N/A     70  66  88 NE1         N/A
PUU OPAE*        N/A     64  59  82 NE1G7       N/A
PUU LUA*       NOT AVBL
MAKAHA RIDGE*    N/A     66  64  94 CALM        N/A
$$

HIZ005>011-260900-
OAHU-

CITY           SKY/WX    TMP DP  RH WIND       PRES   REMARKS
HONOLULU       HVY RAIN  73  72  94 NE3       30.09R FOG
KALAELOA       PTCLDY    75  67  76 NE3       30.10R
KANEOHE MCB    MOCLDY    76  70  82 SE8       30.07R
WHEELER FIELD  FAIR      71  67  88 S2        30.09R
BELLOWS*         N/A    N/A N/A N/A SE2         N/A
KAHUKU*          N/A    N/A N/A N/A VRB8G14     N/A
WHEELER*         N/A    N/A N/A N/A SE3         N/A
WAIANAE HARBOR   N/A    N/A N/A N/A NE2         N/A
DILLINGHAM*      N/A     81  77  89 MISG        N/A
KAHUKU TRN*      N/A     81  75  83 CALM        N/A
KAWAILOA*        N/A     70  64  83 SE3G15      N/A
KII*             N/A     75  70  83 E17         N/A
MAKUA RANGE*     N/A     81  75  83 E6          N/A
OAHU FOREST NW NOT AVBL
SCHOFIELD BRK*   N/A     68  64  88 MISG        N/A
SCHOFIELD S*   NOT AVBL
WAIANAE VLY*   NOT AVBL
KUAOKALA*      NOT AVBL
HONOULIUULI*   NOT AVBL
MOKUOLOE IS*   NOT AVBL
PALEHUA*       NOT AVBL
WAIAWA PHB*    NOT AVBL
$$

HIZ012>013-260900-
MOLOKAI-

CITY           SKY/WX    TMP DP  RH WIND       PRES   REMARKS
MOLOKAI AIRPT  CLOUDY    73  66  78 E7        30.11R
KALAUPAPA      NOT AVBL
MAKAPULAPAI*     N/A     72  68  88 SE5G10      N/A
MOLOKAI 1*     NOT AVBL
PUU ALII*        N/A     59  59 100 E2G8        N/A
$$

HIZ016-260900-
KAHOOLAWE-

CITY           SKY/WX    TMP DP  RH WIND       PRES   REMARKS
KAHOOLAWE*       N/A     68 N/A N/A E1          N/A
HAKIOAWA*        N/A     84  83  97 MISG      30.53R HX 102
HONOKANAIA*      N/A     73  70  91 N3G10     30.03S
KANELOA*         N/A     72  70  94 NE8G17    30.15S
KEALIALALO*    NOT AVBL
LUA MAKIKA*    NOT AVBL
$$

HIZ014>015-260900-
LANAI-

CITY           SKY/WX    TMP DP  RH WIND       PRES   REMARKS
LANAI CITY     CLOUDY    70  67  90 SE12      30.15S
LANAI 1*       NOT AVBL
$$

HIZ017>028-260900-
MAUI-

CITY           SKY/WX    TMP DP  RH WIND       PRES   REMARKS
KAHULUI        CLEAR     71  69  93 CALM      30.09R
KAPALUA-W MAUI NOT AVBL
HANA AIRPORT   NOT AVBL
HANA*            N/A     73 N/A N/A S3          N/A
HALEAKALA SUMM   N/A     41  39  93 E14         N/A
MAALAEA BAY*     N/A     75 N/A N/A N8G17       N/A
HALEAKALA*     NOT AVBL
KAUPO GAP*       N/A     59  54  82 N5G12       N/A
KULA 1*          N/A     52  51  98 E3          N/A
$$

HIZ023>026-260900-
BIG ISLAND OF HAWAII COAST AND LOWER SLOPES-

CITY           SKY/WX    TMP DP  RH WIND       PRES   REMARKS
KAILUA KONA    MOCLDY    76  68  76 SE10      30.05S
HILO           MOCLDY    72  69  90 SW3       30.11R
HONOKAA*         N/A     66 N/A N/A VRB1        N/A
KAWAIHAE MWT*    N/A     75 N/A N/A E8          N/A
KAWAIHAE*        N/A     79 N/A N/A E6        30.07R
SOUTH POINT*     N/A     68 N/A N/A N9          N/A
UPOLU AIRPORT*   N/A    N/A N/A N/A E10G16      N/A
KAMUELA*       CLOUDY    63  63 100 CALM      30.18S
HAKALAU*         N/A     51  50  95 S3G10       N/A
KALOKO-HONOKO*   N/A     75  64  69 CALM      30.06R
PALI 2*          N/A     64  61  88 SW5         N/A
KEALAKOMO*       N/A     73  66  78 N5          N/A
KAUPULEHU*     NOT AVBL
KAPAPALA*        N/A     64  63  96 NW5         N/A
LOWER KAHUKU*    N/A     63 -40   1 N2G8        N/A
PUHE CS*         N/A     75  66  73 E6G12       N/A
PUHO CS*         N/A     73  65  77 E1          N/A
PTA KEAMUKU*     N/A     63  59  88 CALM        N/A
WAIKOLOA*      NOT AVBL
$$

HIZ027>028-260900-
BIG ISLAND OF HAWAII INTERIOR AND SUMMMITS-

CITY           SKY/WX    TMP DP  RH WIND       PRES   REMARKS
BRADSHAW FIELD PTCLDY    51  50  94 SE3       30.39R
MK VISITOR CEN   N/A     43  39  87 E1          N/A
MAUNA KEA*       N/A     32  28  86 N8          N/A  WCI  25
MAUNA LOA*       N/A     41  36  81 MISG        N/A
MAUNA LOA 1*   NOT AVBL
PTA KIPUKA*      N/A     55  55 100 SE2G9       N/A
PTA RANGE 17*    N/A     55  50  82 SE7G16      N/A
PTA WEST*        N/A     63  57  82 SE12        N/A
NENE CABIN*      N/A     48  46  93 E3G10       N/A
AHUMOA*        NOT AVBL
PTA PORTABLE*  NOT AVBL
PUU MALI*        N/A     52  50  93 SW2         N/A
$$

HIC003-260900-
NORTHWEST ISLANDS-

CITY           SKY/WX    TMP DP  RH WIND       PRES   REMARKS
MIDWAY ISLAND  CLEAR     72  70  94 CALM      30.12R
MIDWAY NOS*      N/A     73 N/A N/A MISG      30.11R
FRENCH FRIGATE NOT AVBL
$$

PHZ110>124-180-260900-
BUOY REPORTS

STATION/POSITION TIME  TEMP    WIND        PRES    WAVE   SWELL
                       AIR SEA DIR/SP/G            HT/PER HT/DIR
                 (UTC) (F)     (DEG/KT/KT) (MB)    (FT/S) (FT/D)
BUOY 51001       0800   78 80   60/ 12/ 16 1018.4R
BUOY 51101       0750   76 79   70/  8/  8 1019.4R   4/ 7   5
BUOY 51100       NOT AVBL
BUOY 51002       0750   78 79  100/ 12/ 14 1017.7R   5/ 8   3/ 80
BUOY 51003       0750   78 80   70/  8/ 10 1017.9R   4/ 8   3/ 80
BUOY 51004       0750   78 79  100/ 14/ 14 1018.7R   6/ 8   5/ 90
BARBERS PT BUOY  NOT AVBL
WAIMEA BAY BUOY  0804      78                N/A     3/ 8
KAILUA BAY BUOY  0811      78                N/A     5/ 7   2/ 50
LANAI BUOY       0815      79                N/A     3/13   2/200
BARBERS PT 2     0803      79                N/A     3/13   2/190
PAUWELA MAUI     0809      78                N/A     5/ 8
HILO             0812      79                N/A     5/ 8   2/ 60
KANEOHE BAY BUOY 0806      77                N/A     5/ 6
HANALEI KAUAI    NOT AVBL
KAHULUI HARBOR   0800   76 78   20/ 12/ 14 1018.7R
HONOLULU HARBOR  0800   76 80  100/  4/  6 1019.5R
KILO NALU        NOT AVBL
HILO HARBOR      0800   72 78  210/  4/  5 1019.0R
MOKUOLOE         0730      80              1018.8R
NAWILIWILI       0800   76 81   40/  5/  8 1019.1R
WHOTS BUOY       NOT AVBL
BUOY 51028       NOT AVBL
$$

......................KEY........................................
  SKY/WX - SKY CONDITIONS/PRESENT WEATHER
  TMP    - TEMPERATURE IN FAHRENHEIT
  DWPT   - DEWPOINT IN FAHRENHEIT
  RH     - RELATIVE HUMIDITY IN PERCENT
  WIND   - DIRECTION AND SPEED /MPH FOR ISLANDS...KTS FOR BUOYS/
  PRES   - MEAN SEA LEVEL PRESSURE IN INCHES OF HG
  VSB    - VISIBILITY IN MILES
  HX     - HEAT INDEX
  WCI    - WIND CHILL INDEX
  VRB    - VARIABLE WIND DIRECTION
  N/A    - NOT AVAILABLE




USA.gov is the U.S. government's official web portal to all federal, state and local government web resources and services.